Starlink 4193

operational
NORAD ID: 52875 Int'l Des: 2022-062 Owner: SPXS Country: US Constellation: starlink
LEOCIRCULAR

Über Starlink 4193

Beschreibung wird geladen...

Live-Position

3D-Globus wird geladen...

Nächste Überflüge

Höhenverlauf

Altitude vs Time

uPlot chart will show altitude changes over time

Zweizeiliger Elementsatz

1 52875U 22062AX 25260.79914286 .00008213 00000-0 53388-3 0 9994
2 52875 53.2168 70.2564 0001169 81.3248 278.7877 15.08814631179966
Epoch: 17. Sept. 2025 • Age: 10 hours

Aktueller Status

Höhe 540.2 km
Geschwindigkeit 7.60 km/s
Subsatellitenpunkt 22.28°N, 152.4°E
Startdatum 17. Juni 2022
Alter 3.2 years
Typ internet

Technische Details

Klassifizierung Payload
Masse 297.00 kg
Trockenmasse 275.00 kg
Gesamtmasse 297.00 kg
Länge 0.20 m
Durchmesser 2.80 m
Spannweite 9.00 m
Form Box + pan
Hersteller SPXS
Bus-Typ Starlink
Phasenstatus In Orbit
Besitzer/Staat SPXS/US

Große Konstellationen

Loading constellations...